| time (UTC) | temp C | wind direction | speed KPH | gust KPH | rain 1hr cm | rain 24hr cm | rain mn cm | humidity % | barometer mb |
| 20260906070559 | 18 | 323 | 0.0 | 0.0 | 0.00 | 0.00 | 0.00 | 34 | 1023.2 |
| 20260906070051 | 19 | 323 | 0.0 | 3.2 | 0.00 | 0.00 | 0.00 | 33 | 1023.2 |
| 20260906065543 | 19 | 323 | 0.0 | 3.2 | 0.00 | 0.00 | 0.00 | 33 | 1023.1 |
| 20260906065049 | 19 | 323 | 0.0 | 3.2 | 0.00 | 0.00 | 0.00 | 33 | 1023.0 |
| 20260906064601 | 19 | 323 | 0.0 | 3.2 | 0.00 | 0.00 | 0.00 | 33 | 1023.0 |
| 20260906064104 | 20 | 309 | 0.0 | 3.2 | 0.00 | 0.00 | 0.00 | 33 | 1023.0 |
| 20260906063558 | 20 | 326 | 1.6 | 6.4 | 0.00 | 0.00 | 0.00 | 33 | 1023.0 |
| 20260906063108 | 20 | 342 | 3.2 | 6.4 | 0.00 | 0.00 | 0.00 | 32 | 1023.1 |
| 20260906062555 | 20 | 360 | 3.2 | 6.4 | 0.00 | 0.00 | 0.00 | 32 | 1023.1 |
| 20260906062103 | 20 | 344 | 3.2 | 9.7 | 0.00 | 0.00 | 0.00 | 32 | 1023.1 |
| 20260906061559 | 20 | 5 | 4.8 | 11.3 | 0.00 | 0.00 | 0.00 | 31 | 1023.1 |
| 20260906061104 | 20 | 355 | 4.8 | 12.9 | 0.00 | 0.00 | 0.00 | 32 | 1023.2 |
| 20260906060506 | 20 | 5 | 4.8 | 12.9 | 0.00 | 0.00 | 0.00 | 31 | 1023.1 |
| 20260906060039 | 20 | 16 | 6.4 | 14.5 | 0.00 | 0.00 | 0.00 | 31 | 1023.1 |
| 20260906055544 | 20 | 22 | 8.0 | 16.1 | 0.00 | 0.00 | 0.00 | 31 | 1023.1 |
| 20260906055052 | 20 | 38 | 6.4 | 16.1 | 0.00 | 0.00 | 0.00 | 31 | 1023.1 |
| 20260906054609 | 20 | 16 | 8.0 | 16.1 | 0.00 | 0.00 | 0.00 | 31 | 1023.1 |
| 20260906054050 | 20 | 5 | 8.0 | 16.1 | 0.00 | 0.00 | 0.00 | 31 | 1023.0 |
| 20260906053600 | 20 | 37 | 6.4 | 12.9 | 0.00 | 0.00 | 0.00 | 31 | 1023.1 |
| 20260906053001 | 21 | 360 | 6.4 | 14.5 | 0.00 | 0.00 | 0.00 | 31 | 1023.0 |
| 20260906052509 | 21 | 36 | 8.0 | 14.5 | 0.00 | 0.00 | 0.00 | 31 | 1023.1 |
| 20260906052002 | 21 | 11 | 6.4 | 14.5 | 0.00 | 0.00 | 0.00 | 31 | 1023.1 |
| 20260906051509 | 21 | 15 | 6.4 | 12.9 | 0.00 | 0.00 | 0.00 | 31 | 1023.1 |
| 20260906051002 | 21 | 9 | 4.8 | 12.9 | 0.00 | 0.00 | 0.00 | 32 | 1023.1 |
| 20260906050558 | 21 | 29 | 4.8 | 12.9 | 0.00 | 0.00 | 0.00 | 32 | 1023.1 |
| 20260906050001 | 21 | 10 | 6.4 | 9.7 | 0.00 | 0.00 | 0.00 | 32 | 1023.1 |
| 20260906045600 | 21 | 360 | 4.8 | 9.7 | 0.00 | 0.00 | 0.00 | 32 | 1023.1 |
| 20260906045105 | 21 | 5 | 6.4 | 8.0 | 0.00 | 0.00 | 0.00 | 32 | 1023.0 |
| 20260906044558 | 21 | 28 | 4.8 | 8.0 | 0.00 | 0.00 | 0.00 | 32 | 1023.0 |
| 20260906044048 | 21 | 30 | 4.8 | 8.0 | 0.00 | 0.00 | 0.00 | 32 | 1023.1 |
| 20260906043556 | 21 | 13 | 4.8 | 8.0 | 0.00 | 0.00 | 0.00 | 31 | 1023.1 |
| 20260906043047 | 21 | 18 | 3.2 | 6.4 | 0.00 | 0.00 | 0.00 | 31 | 1023.1 |
| 20260906042555 | 22 | 26 | 3.2 | 6.4 | 0.00 | 0.00 | 0.00 | 31 | 1023.1 |
| 20260906042047 | 22 | 21 | 3.2 | 4.8 | 0.00 | 0.00 | 0.00 | 31 | 1023.1 |
| 20260906041540 | 22 | 349 | 1.6 | 6.4 | 0.00 | 0.00 | 0.00 | 30 | 1023.0 |
| 20260906041047 | 22 | 327 | 3.2 | 6.4 | 0.00 | 0.00 | 0.00 | 30 | 1023.0 |
| 20260906040536 | 22 | 308 | 3.2 | 8.0 | 0.00 | 0.00 | 0.00 | 30 | 1022.9 |
| 20260906040044 | 22 | 313 | 4.8 | 8.0 | 0.00 | 0.00 | 0.00 | 30 | 1022.9 |
| 20260906035555 | 22 | 345 | 3.2 | 4.8 | 0.00 | 0.00 | 0.00 | 31 | 1022.9 |
| 20260906035100 | 23 | 355 | 1.6 | 4.8 | 0.00 | 0.00 | 0.00 | 30 | 1022.8 |
| 20260906034551 | 23 | 5 | 1.6 | 3.2 | 0.00 | 0.00 | 0.00 | 30 | 1022.8 |
| 20260906034058 | 23 | 355 | 1.6 | 3.2 | 0.00 | 0.00 | 0.00 | 30 | 1022.8 |
| 20260906033501 | 23 | 303 | 1.6 | 3.2 | 0.00 | 0.00 | 0.00 | 30 | 1022.8 |
| 20260906033010 | 23 | 303 | 1.6 | 4.8 | 0.00 | 0.00 | 0.00 | 29 | 1022.8 |
| 20260906032503 | 24 | 312 | 1.6 | 3.2 | 0.00 | 0.00 | 0.00 | 29 | 1022.8 |
| 20260906032010 | 24 | 312 | 0.0 | 1.6 | 0.00 | 0.00 | 0.00 | 29 | 1022.8 |
| 20260906031504 | 24 | 312 | 0.0 | 4.8 | 0.00 | 0.00 | 0.00 | 29 | 1022.7 |
| 20260906031057 | 24 | 312 | 1.6 | 4.8 | 0.00 | 0.00 | 0.00 | 29 | 1022.6 |
| 20260906030604 | 25 | 282 | 3.2 | 4.8 | 0.00 | 0.00 | 0.00 | 28 | 1022.5 |
| 20260906030005 | 25 | 256 | 0.0 | 3.2 | 0.00 | 0.00 | 0.00 | 28 | 1022.4 |
| 20260906025511 | 25 | 253 | 1.6 | 3.2 | 0.00 | 0.00 | 0.00 | 28 | 1022.4 |
| 20260906025017 | 25 | 247 | 1.6 | 3.2 | 0.00 | 0.00 | 0.00 | 28 | 1022.3 |
| 20260906024503 | 25 | 247 | 0.0 | 3.2 | 0.00 | 0.00 | 0.00 | 28 | 1022.3 |
| 20260906024009 | 25 | 254 | 1.6 | 3.2 | 0.00 | 0.00 | 0.00 | 28 | 1022.2 |
| 20260906023516 | 25 | 279 | 0.0 | 3.2 | 0.00 | 0.00 | 0.00 | 27 | 1022.2 |
| 20260906023103 | 25 | 279 | 1.6 | 3.2 | 0.00 | 0.00 | 0.00 | 27 | 1022.1 |
| 20260906022501 | 25 | 279 | 0.0 | 3.2 | 0.00 | 0.00 | 0.00 | 27 | 1022.0 |
| 20260906022009 | 25 | 279 | 0.0 | 4.8 | 0.00 | 0.00 | 0.00 | 27 | 1022.0 |
| 20260906021603 | 26 | 286 | 1.6 | 4.8 | 0.00 | 0.00 | 0.00 | 27 | 1022.0 |
| 20260906021004 | 26 | 281 | 1.6 | 3.2 | 0.00 | 0.00 | 0.00 | 26 | 1022.0 |
| 20260906020511 | 26 | 290 | 1.6 | 3.2 | 0.00 | 0.00 | 0.00 | 26 | 1022.0 |
| 20260906020057 | 26 | 290 | 1.6 | 3.2 | 0.00 | 0.00 | 0.00 | 26 | 1021.9 |
| 20260906015545 | 26 | 280 | 1.6 | 4.8 | 0.00 | 0.00 | 0.00 | 26 | 1021.8 |
| 20260906015053 | 26 | 281 | 1.6 | 4.8 | 0.00 | 0.00 | 0.00 | 26 | 1021.8 |
| 20260906014555 | 26 | 288 | 3.2 | 6.4 | 0.00 | 0.00 | 0.00 | 25 | 1021.8 |
| 20260906014053 | 27 | 286 | 1.6 | 6.4 | 0.00 | 0.00 | 0.00 | 25 | 1021.8 |
| 20260906013545 | 27 | 286 | 3.2 | 6.4 | 0.00 | 0.00 | 0.00 | 25 | 1021.9 |
| 20260906013053 | 27 | 311 | 1.6 | 11.3 | 0.00 | 0.00 | 0.00 | 25 | 1021.9 |
| 20260906012601 | 27 | 288 | 3.2 | 9.7 | 0.00 | 0.00 | 0.00 | 25 | 1021.9 |
| 20260906012050 | 27 | 295 | 4.8 | 9.7 | 0.00 | 0.00 | 0.00 | 25 | 1021.9 |
| 20260906011559 | 27 | 304 | 6.4 | 9.7 | 0.00 | 0.00 | 0.00 | 25 | 1021.9 |
| 20260906011003 | 27 | 321 | 4.8 | 14.5 | 0.00 | 0.00 | 0.00 | 25 | 1021.9 |
| 20260906010511 | 27 | 291 | 8.0 | 14.5 | 0.00 | 0.00 | 0.00 | 25 | 1021.9 |
| 20260906010108 | 27 | 296 | 6.4 | 12.9 | 0.00 | 0.00 | 0.00 | 25 | 1022.0 |
| 20260906005509 | 27 | 296 | 3.2 | 6.4 | 0.00 | 0.03 | 0.00 | 26 | 1021.9 |
| 20260906005015 | 27 | 271 | 3.2 | 6.4 | 0.00 | 0.03 | 0.00 | 26 | 1022.0 |
| 20260906004524 | 27 | 295 | 1.6 | 6.4 | 0.00 | 0.03 | 0.00 | 27 | 1022.0 |
| 20260906004031 | 27 | 212 | 1.6 | 6.4 | 0.00 | 0.03 | 0.00 | 27 | 1021.9 |
| 20260906003539 | 28 | 232 | 1.6 | 6.4 | 0.00 | 0.03 | 0.00 | 26 | 1022.0 |
| 20260906003047 | 28 | 224 | 1.6 | 6.4 | 0.00 | 0.03 | 0.00 | 26 | 1022.0 |
| 20260906002555 | 28 | 231 | 3.2 | 8.0 | 0.00 | 0.03 | 0.00 | 26 | 1021.9 |
| 20260906002047 | 28 | 273 | 1.6 | 11.3 | 0.00 | 0.03 | 0.00 | 26 | 1022.0 |
| 20260906001553 | 28 | 290 | 6.4 | 11.3 | 0.00 | 0.03 | 0.00 | 26 | 1022.0 |
| 20260906001102 | 28 | 229 | 1.6 | 11.3 | 0.00 | 0.03 | 0.00 | 26 | 1022.0 |
| 20260906000505 | 28 | 273 | 3.2 | 14.5 | 0.00 | 0.03 | 0.00 | 25 | 1022.0 |
| 20260906000101 | 28 | 195 | 4.8 | 14.5 | 0.00 | 0.03 | 0.00 | 25 | 1022.0 |
| 20260905235503 | 28 | 201 | 8.0 | 12.9 | 0.00 | 0.03 | 0.00 | 25 | 1022.0 |
| 20260905235100 | 28 | 233 | 1.6 | 16.1 | 0.00 | 0.03 | 0.00 | 26 | 1022.0 |
| 20260905234503 | 28 | 330 | 6.4 | 16.1 | 0.00 | 0.03 | 0.00 | 26 | 1022.1 |
| 20260905234103 | 28 | 260 | 3.2 | 12.9 | 0.00 | 0.03 | 0.00 | 26 | 1022.1 |
| 20260905233502 | 28 | 218 | 3.2 | 14.5 | 0.00 | 0.03 | 0.00 | 25 | 1022.1 |
| 20260905233015 | 29 | 273 | 8.0 | 14.5 | 0.00 | 0.03 | 0.00 | 24 | 1022.1 |
| 20260905232521 | 29 | 267 | 3.2 | 12.9 | 0.00 | 0.03 | 0.00 | 24 | 1022.0 |
| 20260905232021 | 30 | 311 | 6.4 | 17.7 | 0.00 | 0.03 | 0.00 | 24 | 1022.0 |
| 20260905231535 | 29 | 200 | 6.4 | 17.7 | 0.00 | 0.03 | 0.00 | 24 | 1022.1 |
| 20260905231036 | 29 | 233 | 6.4 | 19.3 | 0.00 | 0.03 | 0.00 | 25 | 1022.1 |
| 20260905230544 | 29 | 305 | 9.7 | 20.9 | 0.00 | 0.03 | 0.00 | 25 | 1022.2 |
| 20260905230117 | 30 | 306 | 6.4 | 19.3 | 0.00 | 0.03 | 0.00 | 24 | 1022.1 |
| 20260905225545 | 30 | 273 | 6.4 | 19.3 | 0.00 | 0.03 | 0.00 | 25 | 1022.1 |
| 20260905225050 | 30 | 294 | 6.4 | 17.7 | 0.00 | 0.03 | 0.00 | 25 | 1022.1 |
| 20260905224559 | 30 | 319 | 9.7 | 17.7 | 0.00 | 0.03 | 0.00 | 24 | 1022.2 |
| 20260905224001 | 30 | 286 | 1.6 | 22.5 | 0.00 | 0.03 | 0.00 | 25 | 1022.2 |
| 20260905223556 | 30 | 279 | 9.7 | 22.5 | 0.00 | 0.03 | 0.00 | 25 | 1022.2 |
| 20260905223107 | 30 | 111 | 4.8 | 12.9 | 0.00 | 0.03 | 0.00 | 25 | 1022.2 |
| 20260905222557 | 30 | 235 | 3.2 | 16.1 | 0.00 | 0.03 | 0.00 | 25 | 1022.3 |
| 20260905222047 | 30 | 188 | 4.8 | 19.3 | 0.00 | 0.03 | 0.00 | 25 | 1022.3 |
| 20260905221600 | 30 | 247 | 9.7 | 19.3 | 0.00 | 0.03 | 0.00 | 26 | 1022.4 |
| 20260905221104 | 30 | 223 | 8.0 | 17.7 | 0.00 | 0.03 | 0.00 | 26 | 1022.4 |
| 20260905220505 | 30 | 204 | 6.4 | 22.5 | 0.00 | 0.03 | 0.00 | 26 | 1022.5 |
| 20260905220055 | 30 | 302 | 3.2 | 17.7 | 0.00 | 0.03 | 0.00 | 25 | 1022.5 |
| 20260905215603 | 30 | 258 | 9.7 | 17.7 | 0.00 | 0.03 | 0.00 | 24 | 1022.7 |
| 20260905215059 | 30 | 251 | 4.8 | 17.7 | 0.00 | 0.03 | 0.00 | 25 | 1022.6 |
| 20260905214604 | 30 | 223 | 6.4 | 24.1 | 0.00 | 0.03 | 0.00 | 25 | 1022.8 |
| 20260905214006 | 30 | 285 | 16.1 | 24.1 | 0.00 | 0.03 | 0.00 | 25 | 1022.7 |
| 20260905213601 | 30 | 315 | 16.1 | 24.1 | 0.00 | 0.03 | 0.00 | 25 | 1022.8 |
| 20260905213003 | 30 | 214 | 12.9 | 24.1 | 0.00 | 0.03 | 0.00 | 25 | 1022.9 |
| 20260905212559 | 30 | 280 | 8.0 | 24.1 | 0.00 | 0.03 | 0.00 | 25 | 1023.0 |
| 20260905212002 | 30 | 132 | 9.7 | 24.1 | 0.00 | 0.03 | 0.00 | 26 | 1022.9 |
| 20260905211604 | 30 | 288 | 1.6 | 14.5 | 0.00 | 0.03 | 0.00 | 26 | 1023.0 |
| 20260905211049 | 30 | 175 | 4.8 | 22.5 | 0.00 | 0.03 | 0.00 | 26 | 1023.0 |
| 20260905210556 | 30 | 212 | 6.4 | 22.5 | 0.00 | 0.03 | 0.00 | 26 | 1023.1 |
| 20260905210105 | 29 | 294 | 8.0 | 20.9 | 0.00 | 0.03 | 0.00 | 26 | 1023.1 |
| 20260905205507 | 29 | 304 | 11.3 | 22.5 | 0.00 | 0.03 | 0.00 | 26 | 1023.3 |
| 20260905205102 | 30 | 256 | 12.9 | 22.5 | 0.00 | 0.03 | 0.00 | 27 | 1023.3 |
| 20260905204505 | 30 | 257 | 6.4 | 17.7 | 0.00 | 0.03 | 0.00 | 25 | 1023.3 |
| 20260905204103 | 30 | 200 | 3.2 | 19.3 | 0.00 | 0.03 | 0.00 | 25 | 1023.4 |
| 20260905203553 | 30 | 225 | 6.4 | 19.3 | 0.00 | 0.03 | 0.00 | 25 | 1023.6 |
| 20260905203104 | 30 | 206 | 9.7 | 19.3 | 0.00 | 0.03 | 0.00 | 25 | 1023.5 |
| 20260905202503 | 30 | 250 | 8.0 | 40.2 | 0.00 | 0.03 | 0.00 | 26 | 1023.6 |
| 20260905202008 | 29 | 202 | 4.8 | 40.2 | 0.00 | 0.03 | 0.00 | 27 | 1023.6 |
| 20260905201517 | 29 | 243 | 11.3 | 33.8 | 0.00 | 0.03 | 0.00 | 27 | 1023.6 |
| 20260905201024 | 29 | 336 | 4.8 | 19.3 | 0.00 | 0.03 | 0.00 | 27 | 1023.7 |
| 20260905200532 | 29 | 261 | 9.7 | 19.3 | 0.00 | 0.03 | 0.00 | 27 | 1023.8 |
| 20260905200041 | 29 | 250 | 3.2 | 16.1 | 0.00 | 0.03 | 0.00 | 27 | 1023.8 |
| 20260905195549 | 29 | 290 | 11.3 | 16.1 | 0.00 | 0.03 | 0.00 | 27 | 1023.8 |
| 20260905195056 | 30 | 190 | 6.4 | 16.1 | 0.00 | 0.03 | 0.00 | 27 | 1023.8 |
| 20260905194604 | 29 | 184 | 6.4 | 14.5 | 0.00 | 0.03 | 0.00 | 28 | 1023.8 |
| 20260905194008 | 29 | 260 | 4.8 | 19.3 | 0.00 | 0.03 | 0.00 | 28 | 1023.9 |
| 20260905193603 | 29 | 215 | 4.8 | 19.3 | 0.00 | 0.03 | 0.00 | 28 | 1024.0 |
| 20260905193006 | 29 | 194 | 9.7 | 20.9 | 0.00 | 0.03 | 0.00 | 28 | 1023.9 |
| 20260905192601 | 28 | 257 | 6.4 | 19.3 | 0.00 | 0.03 | 0.00 | 29 | 1024.0 |
| 20260905192004 | 28 | 287 | 9.7 | 19.3 | 0.00 | 0.03 | 0.00 | 30 | 1024.0 |
| 20260905191602 | 28 | 265 | 4.8 | 19.3 | 0.00 | 0.03 | 0.00 | 29 | 1024.1 |
| 20260905191053 | 28 | 196 | 6.4 | 16.1 | 0.00 | 0.03 | 0.00 | 29 | 1024.1 |
| 20260905190601 | 28 | 290 | 4.8 | 17.7 | 0.00 | 0.03 | 0.00 | 29 | 1024.1 |
| 20260905190004 | 28 | 265 | 8.0 | 17.7 | 0.00 | 0.03 | 0.00 | 30 | 1024.1 |
| 20260905185511 | 28 | 220 | 4.8 | 16.1 | 0.00 | 0.03 | 0.00 | 30 | 1024.2 |
| 20260905185021 | 27 | 248 | 4.8 | 20.9 | 0.00 | 0.03 | 0.00 | 31 | 1024.3 |
| 20260905184527 | 27 | 281 | 9.7 | 20.9 | 0.00 | 0.03 | 0.00 | 31 | 1024.3 |
| 20260905184035 | 28 | 290 | 6.4 | 12.9 | 0.00 | 0.03 | 0.00 | 31 | 1024.4 |
| 20260905183543 | 28 | 254 | 4.8 | 17.7 | 0.00 | 0.03 | 0.00 | 32 | 1024.4 |
| 20260905183034 | 27 | 209 | 8.0 | 17.7 | 0.00 | 0.03 | 0.00 | 32 | 1024.5 |
| 20260905182541 | 27 | 321 | 6.4 | 14.5 | 0.00 | 0.03 | 0.00 | 33 | 1024.5 |
| 20260905182046 | 27 | 339 | 4.8 | 19.3 | 0.00 | 0.03 | 0.00 | 34 | 1024.6 |
| 20260905181554 | 27 | 285 | 11.3 | 19.3 | 0.00 | 0.03 | 0.00 | 33 | 1024.7 |
| 20260905181104 | 27 | 317 | 11.3 | 16.1 | 0.00 | 0.03 | 0.00 | 34 | 1024.8 |
| 20260905180505 | 27 | 273 | 4.8 | 19.3 | 0.00 | 0.03 | 0.00 | 34 | 1024.9 |
| 20260905180059 | 26 | 275 | 6.4 | 19.3 | 0.00 | 0.03 | 0.00 | 35 | 1024.9 |
| 20260905175502 | 26 | 306 | 6.4 | 16.1 | 0.00 | 0.03 | 0.00 | 34 | 1025.0 |
| 20260905175100 | 26 | 222 | 4.8 | 16.1 | 0.00 | 0.03 | 0.00 | 36 | 1025.0 |
| 20260905174550 | 26 | 295 | 6.4 | 14.5 | 0.00 | 0.03 | 0.00 | 35 | 1025.1 |
| 20260905174058 | 26 | 296 | 4.8 | 17.7 | 0.00 | 0.03 | 0.00 | 37 | 1025.1 |
| 20260905173552 | 26 | 331 | 8.0 | 16.1 | 0.00 | 0.03 | 0.00 | 37 | 1025.2 |
| 20260905173043 | 26 | 298 | 6.4 | 16.1 | 0.00 | 0.03 | 0.00 | 37 | 1025.3 |
| 20260905172549 | 25 | 226 | 4.8 | 19.3 | 0.00 | 0.03 | 0.00 | 38 | 1025.3 |
| 20260905172057 | 25 | 296 | 14.5 | 19.3 | 0.00 | 0.03 | 0.00 | 38 | 1025.2 |
| 20260905171608 | 26 | 269 | 8.0 | 19.3 | 0.00 | 0.03 | 0.00 | 38 | 1025.3 |
| 20260905171056 | 26 | 184 | 4.8 | 12.9 | 0.00 | 0.03 | 0.00 | 39 | 1025.4 |
| 20260905170603 | 25 | 229 | 4.8 | 17.7 | 0.00 | 0.03 | 0.00 | 39 | 1025.3 |
| 20260905170055 | 25 | 290 | 11.3 | 17.7 | 0.00 | 0.03 | 0.00 | 39 | 1025.2 |
| 20260905165546 | 25 | 274 | 4.8 | 16.1 | 0.00 | 0.03 | 0.00 | 40 | 1025.3 |
| 20260905165053 | 25 | 212 | 4.8 | 16.1 | 0.00 | 0.03 | 0.00 | 40 | 1025.3 |
| 20260905164602 | 25 | 258 | 11.3 | 16.1 | 0.00 | 0.03 | 0.00 | 39 | 1025.2 |
| 20260905164009 | 25 | 306 | 3.2 | 12.9 | 0.00 | 0.03 | 0.00 | 41 | 1025.2 |
| 20260905163559 | 25 | 258 | 4.8 | 12.9 | 0.00 | 0.03 | 0.00 | 41 | 1025.2 |
| 20260905163003 | 25 | 236 | 4.8 | 9.7 | 0.00 | 0.03 | 0.00 | 42 | 1025.3 |
| 20260905162510 | 24 | 260 | 4.8 | 11.3 | 0.00 | 0.03 | 0.00 | 41 | 1025.3 |
| 20260905162018 | 24 | 316 | 1.6 | 8.0 | 0.00 | 0.03 | 0.00 | 43 | 1025.3 |
| 20260905161525 | 23 | 265 | 3.2 | 8.0 | 0.00 | 0.03 | 0.00 | 43 | 1025.3 |
| 20260905161033 | 23 | 168 | 0.0 | 9.7 | 0.00 | 0.03 | 0.00 | 45 | 1025.2 |
| 20260905160540 | 23 | 153 | 0.0 | 6.4 | 0.00 | 0.03 | 0.00 | 45 | 1025.2 |
| 20260905160049 | 23 | 174 | 1.6 | 6.4 | 0.00 | 0.03 | 0.00 | 47 | 1025.2 |
| 20260905155538 | 22 | 205 | 3.2 | 9.7 | 0.00 | 0.03 | 0.00 | 48 | 1025.1 |
| 20260905155045 | 22 | 162 | 6.4 | 9.7 | 0.00 | 0.03 | 0.00 | 49 | 1025.1 |
| 20260905154604 | 22 | 113 | 3.2 | 9.7 | 0.00 | 0.03 | 0.00 | 50 | 1025.1 |
| 20260905154102 | 22 | 120 | 4.8 | 9.7 | 0.00 | 0.03 | 0.00 | 50 | 1025.1 |
| 20260905153555 | 22 | 161 | 3.2 | 6.4 | 0.00 | 0.03 | 0.00 | 50 | 1025.1 |
| 20260905153105 | 22 | 143 | 3.2 | 9.7 | 0.00 | 0.03 | 0.00 | 50 | 1025.1 |
| 20260905152555 | 21 | 102 | 4.8 | 11.3 | 0.00 | 0.03 | 0.00 | 50 | 1025.1 |
| 20260905152045 | 21 | 138 | 3.2 | 9.7 | 0.00 | 0.03 | 0.00 | 51 | 1025.2 |
| 20260905151553 | 21 | 121 | 4.8 | 9.7 | 0.00 | 0.03 | 0.00 | 51 | 1025.0 |
| 20260905151101 | 21 | 112 | 4.8 | 11.3 | 0.00 | 0.03 | 0.00 | 51 | 1025.0 |
| 20260905150504 | 21 | 115 | 3.2 | 9.7 | 0.00 | 0.03 | 0.00 | 52 | 1024.9 |
| 20260905150113 | 20 | 118 | 4.8 | 9.7 | 0.00 | 0.03 | 0.00 | 53 | 1025.1 |
| 20260905145503 | 20 | 85 | 6.4 | 9.7 | 0.00 | 0.03 | 0.00 | 53 | 1024.9 |
| 20260905145059 | 20 | 102 | 3.2 | 11.3 | 0.00 | 0.03 | 0.00 | 54 | 1024.9 |
| 20260905144502 | 20 | 82 | 6.4 | 11.3 | 0.00 | 0.03 | 0.00 | 54 | 1024.8 |
| 20260905144101 | 19 | 97 | 3.2 | 11.3 | 0.00 | 0.03 | 0.00 | 54 | 1024.8 |
| 20260905143550 | 19 | 109 | 4.8 | 11.3 | 0.00 | 0.03 | 0.00 | 56 | 1024.8 |
| 20260905143058 | 18 | 155 | 4.8 | 9.7 | 0.00 | 0.03 | 0.00 | 55 | 1024.8 |
| 20260905142501 | 18 | 116 | 4.8 | 9.7 | 0.00 | 0.03 | 0.00 | 56 | 1024.8 |
| 20260905142009 | 18 | 127 | 4.8 | 9.7 | 0.00 | 0.03 | 0.00 | 56 | 1024.8 |
| 20260905141607 | 18 | 118 | 4.8 | 9.7 | 0.00 | 0.03 | 0.00 | 56 | 1024.8 |
| 20260905141011 | 17 | 82 | 3.2 | 6.4 | 0.00 | 0.03 | 0.00 | 57 | 1024.9 |
| 20260905140519 | 17 | 111 | 4.8 | 9.7 | 0.00 | 0.03 | 0.00 | 57 | 1024.8 |
| 20260905135502 | 17 | 121 | 3.2 | 9.7 | 0.00 | 0.03 | 0.00 | 58 | 1024.7 |
| 20260905135012 | 16 | 123 | 4.8 | 9.7 | 0.00 | 0.03 | 0.00 | 59 | 1024.6 |
| 20260905134605 | 16 | 117 | 4.8 | 9.7 | 0.00 | 0.03 | 0.00 | 59 | 1024.5 |
| 20260905134008 | 16 | 130 | 1.6 | 9.7 | 0.00 | 0.03 | 0.00 | 61 | 1024.4 |
| 20260905133604 | 16 | 114 | 1.6 | 9.7 | 0.00 | 0.03 | 0.00 | 61 | 1024.3 |
| 20260905133007 | 15 | 113 | 4.8 | 9.7 | 0.00 | 0.03 | 0.00 | 62 | 1024.3 |
| 20260905132516 | 15 | 89 | 3.2 | 9.7 | 0.00 | 0.03 | 0.00 | 62 | 1024.2 |
| 20260905132021 | 15 | 109 | 4.8 | 9.7 | 0.00 | 0.03 | 0.00 | 63 | 1024.1 |
| 20260905131533 | 15 | 119 | 4.8 | 9.7 | 0.00 | 0.03 | 0.00 | 65 | 1024.1 |
| 20260905131037 | 15 | 113 | 4.8 | 9.7 | 0.00 | 0.03 | 0.00 | 65 | 1024.1 |
| 20260905130545 | 15 | 96 | 4.8 | 8.0 | 0.00 | 0.03 | 0.00 | 65 | 1024.0 |
| 20260905130036 | 15 | 101 | 4.8 | 9.7 | 0.00 | 0.03 | 0.00 | 65 | 1024.0 |
| 20260905125543 | 15 | 92 | 3.2 | 9.7 | 0.00 | 0.03 | 0.00 | 66 | 1023.9 |
| 20260905125051 | 15 | 101 | 3.2 | 9.7 | 0.00 | 0.03 | 0.00 | 67 | 1023.9 |
| 20260905124602 | 15 | 107 | 1.6 | 4.8 | 0.00 | 0.03 | 0.00 | 67 | 1023.9 |
| 20260905124049 | 15 | 107 | 1.6 | 4.8 | 0.00 | 0.03 | 0.00 | 67 | 1023.9 |
| 20260905123557 | 15 | 105 | 1.6 | 6.4 | 0.00 | 0.03 | 0.00 | 67 | 1023.8 |
| 20260905123051 | 15 | 109 | 3.2 | 6.4 | 0.00 | 0.03 | 0.00 | 68 | 1023.8 |
| 20260905122539 | 15 | 105 | 4.8 | 6.4 | 0.00 | 0.03 | 0.00 | 68 | 1023.7 |
| 20260905122047 | 15 | 102 | 3.2 | 4.8 | 0.00 | 0.03 | 0.00 | 67 | 1023.7 |
| 20260905121537 | 16 | 102 | 3.2 | 4.8 | 0.00 | 0.03 | 0.00 | 67 | 1023.6 |
| 20260905121047 | 16 | 102 | 3.2 | 4.8 | 0.00 | 0.03 | 0.00 | 67 | 1023.6 |
| 20260905120554 | 16 | 102 | 3.2 | 4.8 | 0.00 | 0.03 | 0.00 | 67 | 1023.6 |
| 20260905115554 | 16 | 102 | 3.2 | 4.8 | 0.00 | 0.03 | 0.00 | 65 | 1023.6 |
| 20260905115059 | 16 | 102 | 3.2 | 3.2 | 0.00 | 0.03 | 0.00 | 65 | 1023.5 |
| 20260905114502 | 16 | 64 | 1.6 | 3.2 | 0.00 | 0.03 | 0.00 | 64 | 1023.6 |
| 20260905114010 | 17 | 64 | 0.0 | 3.2 | 0.00 | 0.03 | 0.00 | 64 | 1023.6 |
| 20260905113502 | 17 | 64 | 0.0 | 3.2 | 0.00 | 0.03 | 0.00 | 64 | 1023.6 |
| 20260905113012 | 17 | 64 | 0.0 | 3.2 | 0.00 | 0.03 | 0.00 | 63 | 1023.5 |
| 20260905112504 | 17 | 64 | 0.0 | 4.8 | 0.00 | 0.03 | 0.00 | 64 | 1023.5 |
| 20260905112101 | 17 | 64 | 0.0 | 4.8 | 0.00 | 0.03 | 0.00 | 64 | 1023.5 |
| 20260905111501 | 17 | 64 | 1.6 | 6.4 | 0.00 | 0.03 | 0.00 | 64 | 1023.4 |
| 20260905111057 | 17 | 64 | 3.2 | 6.4 | 0.00 | 0.03 | 0.00 | 64 | 1023.4 |
| 20260905110543 | 17 | 75 | 1.6 | 6.4 | 0.00 | 0.03 | 0.00 | 64 | 1023.5 |
| 20260905110051 | 17 | 67 | 3.2 | 6.4 | 0.00 | 0.03 | 0.00 | 64 | 1023.3 |
| 20260905105600 | 17 | 69 | 3.2 | 6.4 | 0.00 | 0.03 | 0.00 | 64 | 1023.4 |
| 20260905105004 | 17 | 61 | 3.2 | 8.0 | 0.00 | 0.03 | 0.00 | 64 | 1023.4 |
| 20260905104559 | 17 | 63 | 3.2 | 8.0 | 0.00 | 0.03 | 0.00 | 64 | 1023.3 |
| 20260905104002 | 17 | 78 | 3.2 | 11.3 | 0.00 | 0.03 | 0.00 | 64 | 1023.3 |
| 20260905103557 | 17 | 82 | 4.8 | 11.3 | 0.00 | 0.03 | 0.00 | 64 | 1023.2 |
| 20260905103105 | 17 | 41 | 4.8 | 12.9 | 0.00 | 0.03 | 0.00 | 64 | 1023.3 |
| 20260905102558 | 17 | 79 | 6.4 | 12.9 | 0.00 | 0.03 | 0.00 | 64 | 1023.2 |
| 20260905102048 | 17 | 96 | 4.8 | 12.9 | 0.00 | 0.03 | 0.00 | 64 | 1023.2 |
| 20260905101556 | 17 | 94 | 4.8 | 9.7 | 0.00 | 0.03 | 0.00 | 64 | 1023.2 |
| 20260905101106 | 17 | 76 | 6.4 | 9.7 | 0.00 | 0.03 | 0.00 | 64 | 1023.1 |
| 20260905100506 | 17 | 79 | 4.8 | 9.7 | 0.00 | 0.03 | 0.00 | 64 | 1023.1 |
| 20260905100005 | 17 | 96 | 4.8 | 9.7 | 0.00 | 0.03 | 0.00 | 63 | 1023.1 |
| 20260905095600 | 17 | 96 | 3.2 | 11.3 | 0.00 | 0.03 | 0.00 | 63 | 1023.1 |
| 20260905095003 | 17 | 105 | 6.4 | 11.3 | 0.00 | 0.03 | 0.00 | 64 | 1023.1 |
| 20260905094601 | 17 | 109 | 6.4 | 9.7 | 0.00 | 0.03 | 0.00 | 64 | 1023.1 |
| 20260905094004 | 17 | 119 | 4.8 | 9.7 | 0.00 | 0.03 | 0.00 | 64 | 1023.0 |
| 20260905093512 | 17 | 126 | 3.2 | 6.4 | 0.00 | 0.03 | 0.00 | 63 | 1023.0 |
| 20260905093003 | 17 | 118 | 3.2 | 8.0 | 0.00 | 0.03 | 0.00 | 63 | 1022.9 |
| 20260905092509 | 17 | 94 | 4.8 | 8.0 | 0.00 | 0.03 | 0.00 | 63 | 1022.8 |
| 20260905092015 | 17 | 92 | 3.2 | 8.0 | 0.00 | 0.03 | 0.00 | 63 | 1022.8 |
| 20260905091524 | 17 | 91 | 4.8 | 9.7 | 0.00 | 0.03 | 0.00 | 63 | 1022.7 |
| 20260905091031 | 17 | 93 | 4.8 | 8.0 | 0.00 | 0.03 | 0.00 | 63 | 1022.8 |
| 20260905090539 | 18 | 82 | 3.2 | 6.4 | 0.00 | 0.03 | 0.00 | 63 | 1022.8 |
| 20260905090047 | 18 | 85 | 3.2 | 6.4 | 0.00 | 0.03 | 0.00 | 63 | 1022.8 |
| 20260905085553 | 18 | 125 | 3.2 | 6.4 | 0.00 | 0.03 | 0.00 | 63 | 1022.8 |
| 20260905085101 | 18 | 115 | 3.2 | 9.7 | 0.00 | 0.03 | 0.00 | 63 | 1022.8 |
| 20260905084503 | 18 | 96 | 4.8 | 9.7 | 0.00 | 0.03 | 0.00 | 63 | 1022.9 |
| 20260905084101 | 18 | 100 | 3.2 | 6.4 | 0.00 | 0.03 | 0.00 | 63 | 1022.9 |
| 20260905083500 | 18 | 120 | 1.6 | 6.4 | 0.00 | 0.03 | 0.00 | 63 | 1022.8 |
| 20260905083057 | 18 | 120 | 3.2 | 6.4 | 0.00 | 0.03 | 0.00 | 63 | 1022.7 |
| 20260905082604 | 18 | 111 | 3.2 | 6.4 | 0.00 | 0.03 | 0.00 | 63 | 1022.8 |
| 20260905082057 | 18 | 111 | 3.2 | 6.4 | 0.00 | 0.03 | 0.00 | 63 | 1022.7 |
| 20260905081548 | 18 | 115 | 3.2 | 6.4 | 0.00 | 0.03 | 0.00 | 63 | 1022.8 |
| 20260905081056 | 18 | 115 | 3.2 | 4.8 | 0.00 | 0.03 | 0.00 | 63 | 1022.8 |
| 20260905080547 | 18 | 109 | 3.2 | 4.8 | 0.00 | 0.03 | 0.00 | 62 | 1022.8 |
| 20260905080055 | 18 | 113 | 3.2 | 6.4 | 0.00 | 0.03 | 0.00 | 62 | 1022.7 |
| 20260905075604 | 18 | 109 | 4.8 | 6.4 | 0.00 | 0.03 | 0.00 | 62 | 1022.8 |
| 20260905075005 | 18 | 127 | 3.2 | 6.4 | 0.00 | 0.03 | 0.00 | 62 | 1022.8 |
| 20260905074601 | 18 | 126 | 3.2 | 6.4 | 0.00 | 0.03 | 0.00 | 62 | 1022.8 |
| 20260905074005 | 18 | 141 | 4.8 | 6.4 | 0.00 | 0.03 | 0.00 | 61 | 1022.8 |
| 20260905073602 | 18 | 137 | 3.2 | 4.8 | 0.00 | 0.03 | 0.00 | 61 | 1022.8 |
| 20260905073005 | 19 | 126 | 3.2 | 6.4 | 0.00 | 0.03 | 0.00 | 61 | 1022.8 |
| 20260905072606 | 19 | 123 | 4.8 | 6.4 | 0.00 | 0.03 | 0.00 | 61 | 1022.9 |
| 20260905072053 | 19 | 126 | 3.2 | 4.8 | 0.00 | 0.03 | 0.00 | 60 | 1022.8 |
| 20260905071607 | 19 | 130 | 3.2 | 4.8 | 0.00 | 0.03 | 0.00 | 60 | 1022.8 |
| 20260905071054 | 19 | 130 | 3.2 | 4.8 | 0.00 | 0.03 | 0.00 | 60 | 1022.8 |